Weather in Kitsman

Ukraine / Chernovtci District     48°26′28″N   25°45′35″E
temp.,
°C
wind,
m/s
gust,
m/s
humid.,
%
clouds,
%
prec.,
mm/h
press.,
hPa
HPBL,
m
1 march, mon
mon123:00+3nw81486100 0.3 1027907
02:00+2nw61196100 3.5 1027620
05:00+2nw5897100 1.6 1028450
08:00+2nnw5997100 1.8 1030529
11:00+5nnw687387 0.2 1032953
14:00+5n467492 0.3 1032896
17:00+4nw477895 0.1 1033458
20:00+4nw378197 0.1 1035282
2 march, tue
tue223:00+2wnw368593 0.1 1035244
02:00+1w358880 0.1 1036135
05:000wnw37850 0.0 1034168
08:00+1wnw38790 0.0 1034289
11:00+6wnw610600 0.0 1031510
14:00+10wnw711520 0.0 1030762
17:00+9wnw714582 0.0 1028755
20:00+6nw617751 0.0 1030627
3 march, wed
wed323:00+5nw716730 0.0 1031558
02:00+3nw614810 0.0 1031378
05:00+2nw410900 0.0 1031274
08:00+1nw36935 0.0 1032211
11:00+5nnw347957 0.0 1032576
14:00+6nw347576 0.0 1030639
17:00+6nnw137163 0.0 1028502
20:00+4se128332 0.0 102922
4 march, thu
thu423:00+2sse23900 0.0 102730
02:00+2sse23920 0.0 102530
05:00+1s12870 0.0 102222
08:00+2wsw11752 0.0 102122
11:00+8wnw23520 0.0 1018310
14:00+12wnw364316 0.0 10161210
17:00+11w36520 0.0 1014310
20:00+7w23660 0.0 101433
5 march, fri
fri523:00+5sw237316 0.0 101430
02:00+4sw127354 0.0 101322
05:00+4sse2269100 0.0 101122
08:00+6s2268100 0.0 101127
11:00+10ssw5954100 0.0 1009470
14:00+11w5947100 0.0 10081446
17:00+10nw6116497 0.0 10091274
20:00+6nw7118494 0.7 1012854